Big Bear Station Historical Data
 
Daily Summary for October 18, 2017 Units:  English    Metric   Both
« Previous Day
Next Day »
Daily Weekly Monthly Yearly Custom
  Current: High: Low: Average:
Temperature: 50.0 °F 70.5 °F 45.9 °F 55.2 °F
Dew Point: 35.8 °F 43.4 °F 33.5 °F 38.1 °F
Humidity: 58 % 72 % 33 % 54 %
Wind Speed: 0.0 mph 5.3 mph 0.0 mph 1 mph
Wind Gust: -999.0 mph -999.0 mph - -
Wind:Calm - - West
Pressure: 30.21 in 30.28 in 30.21 in -
Precipitation: 0.00 in      
Historical Graphs
 
 
Tabular Data for October 18, 2017
Time Temperature Dew Point Pressure Wind Wind Speed Wind Gust Humidity Rainfall Rate (Hourly)
00:08 47.8 °F 35.4 °F 30.28 in Calm   -999.0 mph 62 % 0 in
00:23 47.8 °F 37.0 °F 30.28 in Calm   -999.0 mph 66 % 0 in
00:39 47.1 °F 37.1 °F 30.27 in Calm   -999.0 mph 68 % 0 in
00:54 46.8 °F 37.5 °F 30.27 in Calm   -999.0 mph 70 % 0 in
01:09 46.4 °F 36.8 °F 30.27 in Calm   -999.0 mph 69 % 0 in
01:24 46.4 °F 36.4 °F 30.27 in Calm   -999.0 mph 68 % 0 in
01:39 46.4 °F 36.0 °F 30.27 in Calm   -999.0 mph 67 % 0 in
01:55 46.0 °F 36.4 °F 30.27 in Calm   -999.0 mph 69 % 0 in
02:10 45.9 °F 35.2 °F 30.27 in Calm   -999.0 mph 66 % 0 in
02:25 46.4 °F 34.5 °F 30.27 in Calm   -999.0 mph 63 % 0 in
02:40 46.8 °F 35.3 °F 30.27 in Calm   -999.0 mph 64 % 0 in
02:56 47.5 °F 35.1 °F 30.27 in Calm   -999.0 mph 62 % 0 in
03:11 47.1 °F 33.5 °F 30.26 in Calm   -999.0 mph 59 % 0 in
03:26 47.1 °F 35.9 °F 30.26 in Calm   -999.0 mph 65 % 0 in
03:41 47.3 °F 36.1 °F 30.26 in Calm   -999.0 mph 65 % 0 in
03:56 47.3 °F 36.9 °F 30.25 in Calm   -999.0 mph 67 % 0 in
04:12 48.4 °F 34.7 °F 30.25 in Calm   -999.0 mph 59 % 0 in
04:27 47.7 °F 33.6 °F 30.25 in Calm   -999.0 mph 58 % 0 in
04:42 47.3 °F 36.9 °F 30.25 in Calm   -999.0 mph 67 % 0 in
04:57 46.9 °F 36.9 °F 30.26 in Calm   -999.0 mph 68 % 0 in
05:12 46.8 °F 35.3 °F 30.26 in Calm   -999.0 mph 64 % 0 in
05:28 46.6 °F 37.3 °F 30.26 in Calm   -999.0 mph 70 % 0 in
05:43 46.8 °F 36.4 °F 30.26 in Calm   -999.0 mph 67 % 0 in
05:58 47.1 °F 35.9 °F 30.26 in Calm   -999.0 mph 65 % 0 in
06:13 47.1 °F 35.5 °F 30.26 in Calm   -999.0 mph 64 % 0 in
06:28 47.1 °F 35.9 °F 30.26 in Calm   -999.0 mph 65 % 0 in
06:44 47.1 °F 38.5 °F 30.26 in Calm   -999.0 mph 72 % 0 in
06:59 47.5 °F 38.2 °F 30.26 in Calm   -999.0 mph 70 % 0 in
07:14 47.3 °F 37.3 °F 30.26 in Calm   -999.0 mph 68 % 0 in
07:29 47.7 °F 36.5 °F 30.26 in Calm   -999.0 mph 65 % 0 in
07:44 47.8 °F 36.6 °F 30.26 in Calm   -999.0 mph 65 % 0 in
08:00 48.6 °F 37.8 °F 30.26 in Calm   -999.0 mph 66 % 0 in
08:15 49.1 °F 38.2 °F 30.26 in Calm   -999.0 mph 66 % 0 in
08:30 49.5 °F 39.0 °F 30.27 in Calm   -999.0 mph 67 % 0 in
08:45 49.5 °F 39.4 °F 30.27 in Calm   -999.0 mph 68 % 0 in
09:00 49.5 °F 39.8 °F 30.27 in Calm   -999.0 mph 69 % 0 in
09:16 49.6 °F 39.8 °F 30.27 in Calm   -999.0 mph 69 % 0 in
09:31 51.1 °F 41.7 °F 30.27 in Calm   -999.0 mph 70 % 0 in
09:46 54.5 °F 43.4 °F 30.27 in Calm   -999.0 mph 66 % 0 in
10:01 57.0 °F 41.5 °F 30.26 in Calm   -999.0 mph 56 % 0 in
10:17 58.8 °F 41.2 °F 30.26 in NW 2.2 mph -999.0 mph 52 % 0 in
10:32 64.6 °F 42.2 °F 30.26 in Calm   -999.0 mph 44 % 0 in
10:47 65.7 °F 42.0 °F 30.26 in NNE 3.7 mph -999.0 mph 42 % 0 in
11:02 64.6 °F 40.4 °F 30.26 in West 2.2 mph -999.0 mph 41 % 0 in
11:17 65.7 °F 42.0 °F 30.25 in WNW 1.7 mph -999.0 mph 42 % 0 in
11:33 66.6 °F 40.9 °F 30.25 in North 5.3 mph -999.0 mph 39 % 0 in
11:48 68.5 °F 40.5 °F 30.25 in SSW 3.7 mph -999.0 mph 36 % 0 in
12:04 68.4 °F 38.9 °F 30.25 in West 2.2 mph -999.0 mph 34 % 0 in
12:19 68.4 °F 38.9 °F 30.25 in NW 4.2 mph -999.0 mph 34 % 0 in
12:34 67.5 °F 38.1 °F 30.24 in NNW 5.3 mph -999.0 mph 34 % 0 in
12:49 65.8 °F 37.4 °F 30.24 in SSE 3.2 mph -999.0 mph 35 % 0 in
13:04 67.6 °F 40.4 °F 30.23 in NW 4.7 mph -999.0 mph 37 % 0 in
13:20 70.0 °F 39.6 °F 30.23 in SW 1.7 mph -999.0 mph 33 % 0 in
13:35 70.0 °F 40.3 °F 30.22 in Calm   -999.0 mph 34 % 0 in
13:51 70.5 °F 40.0 °F 30.22 in South 2.2 mph -999.0 mph 33 % 0 in
14:06 68.9 °F 40.8 °F 30.22 in SW 1.1 mph -999.0 mph 36 % 0 in
14:21 66.6 °F 40.2 °F 30.22 in NE 4.2 mph -999.0 mph 38 % 0 in
14:37 65.1 °F 40.8 °F 30.22 in NW 4.2 mph -999.0 mph 41 % 0 in
14:52 64.8 °F 40.5 °F 30.22 in WNW 3.7 mph -999.0 mph 41 % 0 in
15:07 65.7 °F 40.7 °F 30.22 in North 4.7 mph -999.0 mph 40 % 0 in
15:22 64.8 °F 41.2 °F 30.22 in WNW 1.7 mph -999.0 mph 42 % 0 in
15:37 65.1 °F 40.8 °F 30.22 in NW 3.7 mph -999.0 mph 41 % 0 in
15:53 64.2 °F 40.0 °F 30.21 in West 2.2 mph -999.0 mph 41 % 0 in
16:23 63.3 °F 40.4 °F 30.21 in WNW 2.7 mph -999.0 mph 43 % 0 in
16:38 63.1 °F 40.8 °F 30.21 in North 2.2 mph -999.0 mph 44 % 0 in
16:54 62.6 °F 39.2 °F 30.21 in WNW 2.7 mph -999.0 mph 42 % 0 in
17:09 61.9 °F 38.6 °F 30.21 in Calm   -999.0 mph 42 % 0 in
17:24 61.2 °F 38.5 °F 30.21 in Calm   -999.0 mph 43 % 0 in
17:39 60.1 °F 38.1 °F 30.21 in NW 2.7 mph -999.0 mph 44 % 0 in
17:54 59.2 °F 37.3 °F 30.21 in South 1.7 mph -999.0 mph 44 % 0 in
18:10 58.1 °F 37.4 °F 30.21 in Calm   -999.0 mph 46 % 0 in
18:25 56.8 °F 36.8 °F 30.21 in Calm   -999.0 mph 47 % 0 in
18:40 55.6 °F 36.7 °F 30.21 in Calm   -999.0 mph 49 % 0 in
18:55 54.3 °F 37.0 °F 30.21 in Calm   -999.0 mph 52 % 0 in
19:10 53.4 °F 36.7 °F 30.21 in Calm   -999.0 mph 53 % 0 in
19:26 52.7 °F 36.5 °F 30.21 in Calm   -999.0 mph 54 % 0 in
19:41 52.0 °F 36.3 °F 30.21 in Calm   -999.0 mph 55 % 0 in
19:57 51.3 °F 36.1 °F 30.21 in Calm   -999.0 mph 56 % 0 in
20:27 50.0 °F 35.8 °F 30.21 in Calm   -999.0 mph 58 % 0 in
Big Bear CA Weather
Compliments of Weather Underground - 1.5 mb